{"data":{"norad_id":65892,"intl_designator":"2025-224L","name":"STARLINK-34853","alt_names":[],"object_type":"PAYLOAD","status":"ACTIVE","operator":null,"country":"US","launch_date":"2025-10-07","launch_site_code":"AFETR","launch_vehicle":null,"mission":null,"orbit_class":"UNKNOWN","rcs_meters":null,"size_class":null,"mass_kg":null,"dimensions":null,"purposes":["comms"],"wikipedia_slug":null,"has_3d_model":false,"image_url":null,"decayed_at":null,"tle_current":{"epoch":"2026-05-25T03:31:35.465664Z","epoch_age_seconds":72468,"freshness":"FRESH","line1":"1 65892U 25224L   26145.14693826  .00072130  00000+0  21179-2 0  9996","line2":"2 65892  53.1579  15.2721 0001172  75.1043 285.0090 15.34513133 36520","mean_motion":15.34513133,"eccentricity":0.0001172,"inclination_deg":53.1579,"raan_deg":15.2721,"arg_perigee_deg":75.1043,"mean_anomaly_deg":285.009,"bstar":0.0021179,"rev_number":3652,"period_min":93.840839093034,"perigee_km":461.56529867896,"apogee_km":463.16871281791,"semimajor_km":6840.5040057484,"source":"CELESTRAK","updated_at":"2026-05-25T13:38:20.980952Z"}}}